WetterOnline ( http://www.wetteronline.de )

Wetter aktuell Döttesfeld

Aktuelles Wetter: Andernach (75m)

6-stündlich | Neueste Meldungen
Ortszeit Temperatur Wetter
Fr, 19.10. 14:00 15.9° C wolkig
Fr, 19.10. 8:00 6.5° C bedeckt
Fr, 19.10. 2:00 12.7° C leicht bewölkt
Do, 18.10. 20:00 16.3° C bedeckt
Do, 18.10. 14:00 16.4° C bedeckt
Do, 18.10. 8:00 13.6° C bedeckt
Do, 18.10. 2:00 14.3° C wolkig
Mi, 17.10. 20:00 15.8° C wolkig
Ortszeit Temperatur Wetter
Fr, 19.10. 18:00 16.1° C leicht bewölkt
Fr, 19.10. 17:50 16.1° C leicht bewölkt
Fr, 19.10. 17:40 16.4° C leicht bewölkt
Fr, 19.10. 17:30 16.7° C leicht bewölkt
Fr, 19.10. 17:20 16.7° C leicht bewölkt
Fr, 19.10. 17:10 16.7° C leicht bewölkt
Fr, 19.10. 17:00 17.0° C wolkig
Fr, 19.10. 16:30 17.7° C fast wolkenlos
Fr, 19.10. 16:00 17.1° C leicht bewölkt
Fr, 19.10. 15:30 17.5° C leicht bewölkt
Fr, 19.10. 15:00 16.8° C leicht bewölkt
Ortszeit Relative Feuchte Sichtweite
Fr, 19.10. 14:00 65% 17 km
Fr, 19.10. 8:00 95% 9 km
Fr, 19.10. 2:00 80% 35 km
Do, 18.10. 20:00 67% 23 km
Do, 18.10. 14:00 75% 5.0 km
Do, 18.10. 8:00 92% 2.5 km
Do, 18.10. 2:00 84% 8 km
Mi, 17.10. 20:00 74% 30 km
Ortszeit Relative Feuchte Sichtweite
Fr, 19.10. 18:00 67% 21 km
Fr, 19.10. 17:50 67% -
Fr, 19.10. 17:40 66% -
Fr, 19.10. 17:30 65% 23 km
Fr, 19.10. 17:20 65% -
Fr, 19.10. 17:10 64% -
Fr, 19.10. 17:00 63% 21 km
Fr, 19.10. 16:30 59% 19 km
Fr, 19.10. 16:00 61% 18 km
Fr, 19.10. 15:30 60% 18 km
Fr, 19.10. 15:00 61% 17 km
Ortszeit Niederschlagsmenge Niederschlagsart
Fr, 19.10. 14:00 0.0 l/m2 in 6 Std. -
Fr, 19.10. 8:00 0.0 l/m2 in 12 Std. -
Fr, 19.10. 2:00 0.0 l/m2 in 6 Std. -
Do, 18.10. 20:00 0.0 l/m2 in 12 Std. -
Do, 18.10. 14:00 0.1 l/m2 in 6 Std. -
Do, 18.10. 8:00 0.0 l/m2 in 12 Std. -
Do, 18.10. 2:00 0.0 l/m2 in 6 Std. -
Mi, 17.10. 20:00 0.0 l/m2 in 12 Std. -
Ortszeit Niederschlagsmenge Niederschlagsart
Fr, 19.10. 18:00 0.0 l/m2 in 1 Std. -
Fr, 19.10. 17:50 keine Meldung -
Fr, 19.10. 17:40 keine Meldung -
Fr, 19.10. 17:30 0.0 l/m2 in 1 Std. -
Fr, 19.10. 17:20 keine Meldung -
Fr, 19.10. 17:10 keine Meldung -
Fr, 19.10. 17:00 0.0 l/m2 in 1 Std. -
Fr, 19.10. 16:30 0.0 l/m2 in 1 Std. -
Fr, 19.10. 16:00 0.0 l/m2 in 1 Std. -
Fr, 19.10. 15:30 0.0 l/m2 in 1 Std. -
Fr, 19.10. 15:00 0.0 l/m2 in 1 Std. -
Ortszeit Stärke Spitze Richtung
km/h Bft. km/h Grad Sektor
Fr, 19.10. 14:00 4 1 11 30° NO
Fr, 19.10. 8:00 4 1 11 210° SW
Fr, 19.10. 2:00 4 1 14 300° NW
Do, 18.10. 20:00 4 1 22 360° N
Do, 18.10. 14:00 11 2 25 350° N
Do, 18.10. 8:00 9 2 24 340° N
Do, 18.10. 2:00 13 3 20 340° N
Mi, 17.10. 20:00 4 1 11 300° NW
Ortszeit Stärke Spitze Richtung
km/h Bft. km/h Grad Sektor
Fr, 19.10. 18:00 9 2 17 330° NW
Fr, 19.10. 17:50 9 2 - 330° NW
Fr, 19.10. 17:40 7 2 - 330° NW
Fr, 19.10. 17:30 7 2 14 320° NW
Fr, 19.10. 17:20 7 2 - 320° NW
Fr, 19.10. 17:10 9 2 - 330° NW
Fr, 19.10. 17:00 7 2 11 310° NW
Fr, 19.10. 16:30 4 1 11 230° SW
Fr, 19.10. 16:00 6 1 11 360° N
Fr, 19.10. 15:30 2 1 11 150° SO
Fr, 19.10. 15:00 2 1 9 120° SO
Ortszeit Untergrenze Bedeckung Gattung
total tief tief mittel hoch
Fr, 19.10. 14:00 8700 m 7/8 0/8 - - -
Fr, 19.10. 8:00 90 m 8/8 8/8 - - -
Fr, 19.10. 2:00 1200 m 2/8 2/8 - - -
Do, 18.10. 20:00 1200 m 8/8 8/8 - - -
Do, 18.10. 14:00 630 m 8/8 8/8 - - -
Do, 18.10. 8:00 150 m 8/8 8/8 - - -
Do, 18.10. 2:00 7800 m 8/8 0/8 - - -
Mi, 17.10. 20:00 6900 m 8/8 2/8 - - -
Ortszeit Bedeckungsgrad in Achtel und Wolkenuntergrenze
Fr, 19.10. 18:00 1(1440m) 3(7200m)
Fr, 19.10. 17:50 1(1440m) 3(7200m)
Fr, 19.10. 17:40 1(1410m) 2(9000m)
Fr, 19.10. 17:30 1(1380m) 4(9000m)
Fr, 19.10. 17:20 1(1380m) 4(9000m)
Fr, 19.10. 17:10 2(1380m)
Fr, 19.10. 17:00 9 9 9
Fr, 19.10. 16:30 1(1350m) 9 9
Fr, 19.10. 16:00 2(1350m) 4(10500m)
Fr, 19.10. 15:30 2(1320m) 4(10500m)
Fr, 19.10. 15:00 1(1320m) 2(1320m)
Ortszeit Luftdruck NN (hPa) Tendenz (hPa in 3 Std.)
Fr, 19.10. 14:00 1024 - 1,3
Fr, 19.10. 8:00 1025 + 0,6
Fr, 19.10. 2:00 1024 + 0,1
Do, 18.10. 20:00 1023 + 0,5
Do, 18.10. 14:00 1023 - 0,2
Do, 18.10. 8:00 1022 + 1,1
Do, 18.10. 2:00 1020 + 0,4
Mi, 17.10. 20:00 1018 + 0,7
Ortszeit Luftdruck NN (hPa) Tendenz (hPa in 3 Std.)
Fr, 19.10. 18:00 1023 - 0,6
Fr, 19.10. 17:50 1023 keine Meldung
Fr, 19.10. 17:40 1023 keine Meldung
Fr, 19.10. 17:30 1023 - 0,8
Fr, 19.10. 17:20 1023 keine Meldung
Fr, 19.10. 17:10 1023 keine Meldung
Fr, 19.10. 17:00 1023 - 0,9
Fr, 19.10. 16:30 1023 - 1,3
Fr, 19.10. 16:00 1023 - 1,4
Fr, 19.10. 15:30 1023 - 1,5
Fr, 19.10. 15:00 1023 - 1,4
Ortszeit Schneehöhe (cm)
Fr, 19.10. 14:00 0
Fr, 19.10. 8:00 0
Fr, 19.10. 2:00 0
Do, 18.10. 20:00 0
Do, 18.10. 14:00 0
Do, 18.10. 8:00 0
Do, 18.10. 2:00 0
Mi, 17.10. 20:00 0
Ortszeit Schneehöhe (cm)
Fr, 19.10. 18:00 0
Fr, 19.10. 17:50 0
Fr, 19.10. 17:40 0
Fr, 19.10. 17:30 0
Fr, 19.10. 17:20 0
Fr, 19.10. 17:10 0
Fr, 19.10. 17:00 0
Fr, 19.10. 16:30 0
Fr, 19.10. 16:00 0
Fr, 19.10. 15:30 0
Fr, 19.10. 15:00 0
Link zu dieser Seite / Seite empfehlen

Das Wetter in ...